Погода в Кацивели

Россия / Республика Крым     44°23′36″N   33°58′19″E
темп.,
°C
ветер,
м/с
пор.,
м/с
влажн.,
%
обл.,
%
осадки,
мм/ч
давл.,
гПа
погр.,
м
11 мая, вт
вт1100:00+5ссз338022 0.0 102243
03:00+4ссз338312 0.0 102050
06:00+5ссз349880 0.0 1018125
09:00+8ссз376698 0.0 1017893
12:00+10ссз476398 0.0 1016693
15:00+8ссз4487100 0.0 1016251
18:00+9ссз238585 0.0 1015356
21:00+8ссз1192100 0.0 101567
12 мая, ср
ср1200:00+8св119351 0.0 101432
03:00+8ссв119556 0.0 101329
06:00+6св129616 0.0 101354
09:00+12вюв226444 0.0 1012839
12:00+15ююв235659 0.0 10121187
15:00+15ююз125736 0.1 10121065
18:00+14вюв116110 0.0 1012656
21:00+9в22865 0.0 101323
13 мая, чт
чт1300:00+8в33870 0.0 101360
03:00+8всв23765 0.0 101238
06:00+9всв347112 0.0 101251
09:00+16в4547100 0.0 1011508
12:00+19вюв553642 0.0 1010912
15:00+19вюв343677 0.0 1010739
18:00+17в234192 0.0 1010334
21:00+12вюв335013 0.0 101133
14 мая, пт
пт1400:00+13вюв22400 0.0 101114
03:00+13ю01390 0.0 101110
06:00+14зсз01413 0.0 101111
09:00+20ю1234100 0.0 1011417
12:00+23ю12305 0.0 1011913
15:00+23з23336 0.0 10111061
18:00+21зсз22412 0.0 10111091
21:00+14зсз22600 0.0 101318
15 мая, сб
сб1500:00+13з22584 0.0 101332
03:00+12сз33760 0.0 101433
06:00+12ссз33773 0.0 101549
09:00+18зсз235343 0.0 1016888
12:00+21з344113 0.0 10161533
15:00+20зюз344497 0.0 10141114
18:00
21:00+13в1173100 0.0 101611